FREGAT R/B, 44116

Orbit data source: Space-Track

FREGAT R/B, 44116 is space debris originally from a launch on Thu, 04 Apr 2019 UTC launched from the French Guiana (FRGUI). Debris objects in space refer to the collection of defunct objects orbiting the Earth. Examples of debris include non-operational satellites, rocket bodies, and fragments generated from explosions, collisions, or faulty payload assembly.

Loading next visibility...
Identifier
44116, 2019-020E
Orbit
Active
Country
Flag of CISCIS
Related business
Manufacturer
Lavochkin
Mission
Spacecraft
Bus & Motor
FREGAT, Unknown motor
Mass
1,050 kg wet, 1,050 kg dry
Launch date (UTC)
2019-04-04 (7 years ago)
Launch vehicle
Unknown
Launch site
French Guiana (FRGUI)
Object type
Payload
Rocket body
Debris
Shape & HBR
Irr, 1.6 m
Radar Cross Section
11.055 m², Large (>1 m²)

Expand to show TLE details & history
Last TLE update: 20 hours ago

TLE from 20 hours ago
0 FREGAT R/B
1 44116U 19020E   26133.07291079 -.00000008  00000-0  00000-0 0  9997
2 44116   0.0292 112.4716 0009000 334.9615 272.6728  5.21007896134676
Epoch: 2026-05-13T01:44Z
TLE epoch observation values (Epoch: 2026-05-13T01:44:59.492Z)
Latitude
-0.02272°
Longitude
102.91394°
Altitude
7,674.979 km
Speed
5.327 km/s
True Right ascension
23h 59m 59s
True Declination
0° 01' 22"
Sunlit
Object was in daylight at epoch
Visualization orbit readout
Latitude
Unknown
Longitude
Unknown
Altitude
Unknown
Speed
Unknown
Apparent Right ascension
Unknown
Apparent Declination
Unknown
Sunlit
N/A
Visualization observer readout
Local Sidereal Time
05:48:53
Azimuth
Unknown
Elevation
Unknown
Doppler factor
Unknown
Orbital elements
Apogee altitude
7,692.921 km
Perigee altitude
7,667.616 km
Semi-major axis
14,058.405 km
Eccentricity
0.0009
Inclination
0.0292°
RAAN
112.4716°
Arg. of periapsis
334.9615°
True anomaly
272.56977°
Mean anomaly
272.6728°
Eccentric anomaly
272.62129°
Mean motion
1.30208 °/min
Orbital period
276.48 mins
BSTAR
0
Loading maneuver chart data...
Computing Atmospheric mass density...
Loading historical data...
Loading historical data...
Loading historical data...
Loading historical data...
Loading historical data...
Loading historical data...
Loading historical data...
Other satellites on launch #20 in the year 2019 (2019-04-04 UTC)

Documentation

Showing up to 5 results
|